Погода Александровск-Сахалинский

Погода Александровск-Сахалинский : погода сейчас, прогноз погоды и архив. Всё, что Вы хотите узнать о погоде Александровск-Сахалинский!

Хотите узнать прогноз погоды Александровск-Сахалинский? Тогда Вам сюда: Погода Александровск-Сахалинский

Поиск расширенной информации на нашем сайте:

Другие новости

Новости СМИ2

Главная страница сайта

Новости сайта

03.07.2017

Напоминаем, что на нашем специализированном сайте Метеоцентр.Азия вы можете получить высокодетализированные автоматические прогнозы погоды по пунктам России, СНГ и мира в авиационном формате (включающие направление и скорость ветра, видимость, явления погоды, количество и форму облачности, нижнюю и верхнюю границу облачности).


Погода Александровск-Сахалинский - сегодня

Время (UTC), дата Ветер
(°,м/с) 
Видим.   Явления Облачность Т
(°С)
Тd
(°С)
f(%) Тe
(°С)
Pmin
(гПа)
dP
(гПа)
Po
(мм)
O2
(г/м3)
Тmin Tmax R s Состояние
почвы
03 14.05.18 340 (С) 1-1{01}  20000 м  слаб. ливневой дождь  10/10 600 м 
+7.6 +6.3 91 +9  1005.4  -0.3  751  293           
09 14.05.18 350 (С) 1-2{03}  20000 м    10/6 600 м кучево-дожд., средняя, верхняя 
[Cb cap|Ac trans|Ci sp]
+8.3 +6.7 90 +9  1005  0.1  751  293    +12     
21 14.05.18 350 (С) 2-2{05}  20000 м    9/9 600 м кучево-дожд. 
[Cb cap]
+7.2 +5.9 91 +7  1004.7  0.1  751  294  +5.2        влажная 
09 15.05.18 220 (ЮЗ) 4-7{12}  20000 м    6/3 600 м средняя, верхняя 
[Sc|Ac trans|Ci sp]
+7.8 +5.1 83 +7  1006.6  1.5  752  294    +11.7  0.4     
21 15.05.18 300 (СЗ) 1-1{06}  20000 м    10/8 600 м средняя 
[Sc|Ac trans]
+6.7 +5.3 91 +8  1007.1  -1.3  752  295  +5.2        влажная 
09 16.05.18 070 (В) 3-5{06}  10 км  слаб. ливневой дождь  10/10 600 м кучево-дожд. 
[Cb cap]
+8.5 +5.8 83 +8  1000.6  -1.2  748  291    +11.1  14     
21 16.05.18 360 (С) 7-10{13}  20000 м  в посл. час ливневой дождь  10/10 300 м кучево-дожд. 
[Cb cap]
+2.2 +0.8 90 -1  1004.2  750  300  +1.7      мокрая 
09 17.05.18 270 (З) 2-6{06}  20000 м    1/1 600 м 
[Sc]
+8.2 +2.4 67 +8  1010.4  1.2  755  295    +9.3  0.1     
12 17.05.18 090 (В) 3-3{06}  20000 м    ясно 
+2.4 +1.4 93 +1  1012.1  1.6  756  302           
15 17.05.18 120 (ЮВ) 3-4{05}  20000 м    ясно 
+1.5 +0.4 92 1011.9  -0.2  756  303           
21 17.05.18 140 (ЮВ) 3-6{07}  20000 м    10/8 600 м кучево-дожд., верхняя 
[Cb cap|Ci sp]
+5.4 +1.3 75 +4  1012  -0.3  756  299  +1.1        влажная 
00 18.05.18 230 (ЮЗ) 4-8{08}  20000 м  {ливн. осадки}  4/0 средняя, верхняя 
[Ac trans|Ci sp]
+12.9 +0.4 42 +12  1011.4  -0.6  756  291           
03 18.05.18 200 (Ю) 8-13{13}  20000 м    ясно 
+12.4 +1 46 +11  1010.9  -0.5  755  291           
06 18.05.18 220 (ЮЗ) 5-9{13}  20000 м    ясно 
+13.3 +1.9 46 +13  1010.2  -0.7  755  290           
15 18.05.18 140 (ЮВ) 3-5{05}  20000 м    ясно 
+7.6 -2 51 +7  1010.8  -0.9  755  296           
21 18.05.18 010 (С) 4-5{05}  20000 м    4/0 средняя, верхняя 
[Ac lent|Ci fib]
+7.1 -0.2 60 +6  1010.8  755  297  +5        влажная 
09 19.05.18 330 (СЗ) 1-2{03}  20000 м    8/3 600 м средняя, верхняя 
[Sc|Ac trans|Ci fib]
+6.5 +3.8 83 +7  1017.3  0.6  760  299    +13.4       
12 19.05.18 тихо () {03}  20000 м    1/1 600 м 
[Sc]
+4.4 +3.4 93 +4  1018.6  1.3  761  301           
15 19.05.18 090 (В) 2-2{04}  20000 м    ясно 
+2.3 +1.4 94 +2  1019.6  762  304           
21 19.05.18 130 (ЮВ) 3-5{05}  20000 м    ясно 
+5.8 +1.3 73 +5  1021.4  0.9  763  301  +0.5        влажная 
09 20.05.18 350 (С) 2-3{04}  20000 м    10/3 600 м средняя, верхняя 
[Sc|Ac lent|Ci sp]
+10 -0.7 47 +10  1017.3  -1  760  296    +12.5       
21 20.05.18 050 (СВ) 1-2{05}  20000 м    10/5 600 м кучево-дожд., средняя, верхняя 
[Cb cap|Ac trans|Ci sp]
+8.3 +0.2 57 +9  1015.5  0.3  759  297  +4.7    0.0    влажная 
15 21.05.18 130 (ЮВ) 3-5{05}  20000 м    ясно 
+2.5 +1.6 94 +1  1015.2  -0.9  758  303           
21 21.05.18 160 (Ю) 3-4{05}  20000 м    10/3 600 м кучево-дожд., средняя, верхняя 
[Cb cap|Ac trans|Cc]
+7.4 +4.4 81 +7  1012.2  -2.1  756  296  -0.1        влажная 
09 22.05.18 200 (Ю) 2-4{11}  20000 м    3/1 600 м средняя 
[Sc|Ac trans]
+16.3 +7.1 54 +17  1003.1  -0.4  750  284    +18.7       
Время (UTC), дата Ветер
(°,м/с) 
Видим.   Явления Облачность Т
(°С)
Тd
(°С)
f(%) Тe
(°С)
Pmin
(гПа)
dP
(гПа)
Po
(мм)
O2
(г/м3)
Тmin Tmax R s Состояние
почвы

Для получения пояснительной информации подведите курсор к названию столбца.

ПОГОДА Александровск-Сахалинский - архив

Всё, что Вы хотите узнать о погоде Александровск-Сахалинский - удобно и подробно!

Выберите нужную дату (начиная с 1 января 2015* года) и нажмите кнопку "Найти".
Будут отображены архивные сводки погоды по пункту Александровск-Сахалинский, начиная с указанной даты.


Отображать данные в формате CSV (для использования в таблицах Excel)


Внимание! Наш архив погоды предназначен исключительно для личного некоммерческого использования в познавательных целях. Если Вам необходимы официальные справки о состоянии погоды (для производственных, юридических, коммерческих и т.п. целей), обращайтесь в органы Росгидромета.

*Примечание: данная дата относится к архиву по метеостанциям СССР (Россия, СНГ, Балтия).
Архив по метеостанциям Зарубежной Европы и Азии (кроме Китая) хранится 10 дней, по другим регионам земного шара (Китай, Африка, Америка, Австралия, Океания) - 1 день.

Александровск-Сахалинский - район местоположения метеостанции


Название, широта, долгота, высота метеостанции:
Александровск-Сахалинский 50.9°ш. 142.2°д. 31 м над ур. моря [Российская Федерация]

Дополнительная информация

В oтличие oт бoльшинства пoгoдных сайтoв мы публикуем пoдрoбную метеoинфoрмацию в детальнoм прoфессиoнальнoм фoрмате.

Характеристики температуры и влажнoсти вoздуха измеряются на высoте 2 м в тени вдали oт зданий и деревьев.
Скoрoсть ветра измеряется на высoте 10 м (на урoвне рoста челoвека скoрoсть ветра ниже в 1.5-2 раза). Если метеoстанция нахoдится в гoрoде или в лесу, тo скoрoсть ветра занижена на 2-4 м/с пo сравнению с oткрытым местoм. Скoрoсть ветра над акватoриями крупных рек и oзёр, а также на вершинах хoлмoв на 2-5 м/с выше, чем в oбычных услoвиях.
Атмoсфернoе давление в разных тoчках местнoсти мoжет значительнo oтличаться oт давления на метеoстанции, в зависимoсти oт услoвий рельефа (при пoдъёме на 10 м давление пoнижается примернo на 1 мм рт.ст.).